Regional Weather Roundup
Issued by NWS

Home | Current Version | Previous Version | Text Only | Print | Product List | Glossary Off
Versions: 1 2 3 4 5 6 7 8 9 10 11 12 13 14 15 16 17 18 19 20 21 22 23 24 25 26 27 28 29 30 31 32 33 34 35 36 37 38 39 40 41 42 43 44 45 46 47 48 49 50

919
ASUS45 KTFX 281810
RWRMT
MONTANA REGIONAL WEATHER ROUNDUP
NATIONAL WEATHER SERVICE GREAT FALLS MT
1200 PM MDT WED JUN 28 2017

NOTE: "FAIR" INDICATES FEW OR NO CLOUDS BELOW 12000 FEET WITH NO
SIGNIFICANT WEATHER AND/OR OBSTRUCTIONS TO VISIBILITY.

MTZ001>007-043-281900-
WEST OF THE DIVIDE

CITY           SKY/WX    TMP DP  RH WIND       PRES   REMARKS
KALISPELL      SUNNY     75  45  34 S12       29.77F
MISSOULA       SUNNY     74  45  35 SE6       29.82F
BUTTE          TSTM      64  42  44 N15       29.90F
MULLAN PASS    SUNNY     58  38  47 VRB6      29.96R
ANACONDA         N/A     64  45  48 SW7         N/A
DEER LODGE       N/A     68  39  34 NW10G17   29.88F
EUREKA           N/A     75  34  22 CALM      29.75F
HAMILTON         N/A     72  37  28 NE7       29.85F
$$

MTZ008-052>055-281900-
SOUTHWEST MONTANA

CITY           SKY/WX    TMP DP  RH WIND       PRES   REMARKS
BOZEMAN        CLOUDY    68  48  48 N6        29.85F
DILLON         CLOUDY    70  45  40 SW10      29.88F
W YELLOWSTONE  CLOUDY    59  45  58 SW14G24   29.99S
ENNIS          PTSUNNY   68  39  34 W7        29.93F
THREE FORKS      N/A     68  50  52 CALM      29.86F
$$

MTZ009-010-012-014-046-048-049-054-281900-
EAST SLOPES AND CENTRAL MONTANA

CITY           SKY/WX    TMP DP  RH WIND       PRES   REMARKS
CUT BANK       PTSUNNY   72  29  20 W13G25    29.73F
GREAT FALLS    SUNNY     76  29  17 W16G28    29.74F
MALMSTROM AFB  SUNNY     75  29  18 W14G22    29.75F
HELENA         SUNNY     76  26  15 W15G26    29.82F
CHOTEAU          N/A     72  30  21 W16       29.80R
$$

MTZ011-013-016-021-045-047-050-051-281900-
NORTH CENTRAL MONTANA

CITY           SKY/WX    TMP DP  RH WIND       PRES   REMARKS
HAVRE          PTSUNNY   80  42  25 NW12      29.68S
LEWISTOWN      SUNNY     73  34  23 W8G20     29.78R
N BAR RANCH      N/A     73  32  21 NW8G18    29.81S
CHINOOK          N/A     75  45  33 W14       29.67F
FORT BENTON      N/A     77  32  19 MISG      29.73S
$$

MTZ017>020-022>027-061-062-281900-
NORTHEAST MONTANA

CITY           SKY/WX    TMP DP  RH WIND       PRES   REMARKS
GLASGOW        PTSUNNY   67  45  45 NE22G30   29.72F
JORDAN           N/A     78  52  40 S18       29.69
SIDNEY         CLOUDY    77  39  25 VRB5      29.73S
WOLF POINT     CLOUDY    78  33  19 VRB6      29.71F
MALTA          SUNNY     77  43  29 E15       29.68F
PLENTYWOOD       N/A     73  39  29 CALM      29.75R
POPLAR           N/A     77  34  20 E9        29.72F
$$

MTZ028>42-056>058-281900-
SOUTHCENTRAL AND SOUTHEAST MONTANA

CITY           SKY/WX    TMP DP  RH WIND       PRES   REMARKS
BAKER          SUNNY     77  35  21 NW7       29.78S
BILLINGS       MOSUNNY   78  44  29 VRB6      29.76F
LIVINGSTON     CLOUDY    72  42  34 W16       29.82S
MILES CITY     CLOUDY    79  50  36 S14G23    29.73F
BIG TIMBER     SUNNY     72  43  35 W17       29.82F
LAUREL           N/A     79  42  26 SW7       29.77S
$$

REGIONAL REPORTS...DAKOTAS

CITY           SKY/WX    TMP DP  RH WIND       PRES   REMARKS
WILLISTON      SUNNY     79  39  23 NE5       29.73S
MINOT          SUNNY     75  45  34 NW20G26   29.67R
DICKINSON      MOSUNNY   78  33  19 NW10G22   29.73S
BEACH            N/A     73  34  23 VRB6      29.80R
CROSBY           N/A     72  45  37 VRB6G12   29.72S
TIOGA            N/A     72  43  35 N9G15     29.74S
WATFORD CITY     N/A     73  41  31 N10       29.73S
BISMARCK       SUNNY     76  45  33 N17G23    29.68R
GRAND FORKS    LGT RAIN  61  61 100 N12       29.54R
FARGO          CLOUDY    67  63  87 W18       29.48R
BUFFALO SD       N/A     79  35  20 NW16G22   29.72R
RAPID CITY     SUNNY     78  49  35 N12G17    29.79F
$$

REGIONAL REPORTS...WYOMING/IDAHO/WASHINGTON

CITY           SKY/WX    TMP DP  RH WIND       PRES   REMARKS
GILLETTE       SUNNY     75  50  41 MISG      29.82F
SHERIDAN       PTSUNNY   74  48  39 S7        29.79R
BUFFALO WY     SUNNY     72  46  39 CALM      29.84F
CODY           SUNNY     75  38  26 W16G23    29.85F
YELLOWSTONE LA   N/A     57  43  59 VRB5      30.05F
IDAHO FALLS    LGT RAIN  62  54  74 E7        29.96F
SALMON         MOSUNNY   68  48  49 N10       29.85F
BOISE          SUNNY     77  40  26 NW10      29.88F
SPOKANE        MOSUNNY   68  43  40 SW13G22   29.86S
$$

REGIONAL REPORTS...ALBERTA

CITY           SKY/WX    TMP DP  RH WIND       PRES   REMARKS
EDMONTON       PTSUNNY   57  50  77 SW5       29.64R
CALGARY        MOSUNNY   64  45  48 N21G28    29.74R
LETHBRIDGE     MOSUNNY   73  36  25 W10G23    29.69S
MEDICINE HAT   MOSUNNY   72  46  40 SW8       29.66S
WATERTON GATE    N/A     70  30  23 W10G18      N/A
$$

REGIONAL REPORTS...SASKATCHEWAN

CITY           SKY/WX    TMP DP  RH WIND       PRES   REMARKS
SWIFT CURRENT  CLOUDY    68  45  42 SE10      29.71S
REGINA         CLOUDY    68  48  49 NW15      29.72R
SASKATOON      MOSUNNY   70  48  46 NW16G23   29.69R
CYPRESS HILLS    N/A     66  43  42 SW5         N/A
VAL MARIE        N/A     72  43  35 S17G25      N/A
ROCKGLEN         N/A     57  52  82 S12G17      N/A
$$




USA.gov is the U.S. government's official web portal to all federal, state and local government web resources and services.